Location: Bodest
(46.3000°N, 22.5667°E)
Time: 10:50:27
(UTC+00:00)

SL-08 RB Rocket - Pass Details

Date: 16 October 2021
Orbit: 646 x 684 km, 97.8° (Epoch: 07 December)

Event Time Altitude Azimuth Distance (km) Brightness Sun altitude
Rises 17:15:47 0° 170° (S) 2,964 6.9 -17.0°
Reaches altitude 10° 17:17:59 10° 173° (S) 2,063 6.1 -17.4°
Maximum altitude 17:22:29 73° 258° (WSW) 696 3.9 -18.2°
Drops below altitude 10° 17:27:04 10° 343° (NNW) 2,103 6.6 -19.0°
Sets 17:29:20 0° 346° (NNW) 3,027 7.4 -19.4°
